Location: Castiglione Fibocchi
(43.5333°N, 11.7667°E)
Time: 18:58:23
(UTC+00:00)

USA 229 DEB - Pass Details

Date: 15 August 2020
Orbit: 974 x 1238 km, 63.4° (Epoch: 17 September)

Event Time Altitude Azimuth Distance (km) Brightness Sun altitude
Exits shadow 00:36:45 86° 201° (SSW) 1,029 3.4 -29.7°
Maximum altitude 00:36:55 89° 127° (SE) 1,028 3.4 -29.7°
Drops below altitude 10° 00:43:46 10° 37° (NE) 2,907 6.9 -29.2°
Sets 00:46:30 0° 37° (NE) 3,905 7.8 -29.0°
